Chicago O'Hare, IL

3:25 PM CST on February 11, 2016 (GMT -0600)
Chicago-O'Hare International

Weather History for KORD - March, 2013

Change the Weather History Date:

Thursday, March 28, 2013

  Actual Average Record
Temperature  
Mean Temperature 40 °F 42 °F  
Max Temperature 51 °F 52 °F 79 °F (1986)
Min Temperature 28 °F 33 °F 9 °F (1887)
Degree Days  
Heating Degree Days 25 23  
Month to date heating degree days 935 775  
Since 1 July heating degree days 5337 5509  
Cooling Degree Days 0 0  
Month to date cooling degree days 0 0  
Year to date cooling degree days 0 0  
Moisture  
Dew Point 21 °F    
Average Humidity 53    
Maximum Humidity 75    
Minimum Humidity 31    
Precipitation  
Precipitation 0.00 in 0.09 in 1.26 in (1977)
Month to date precipitation 2.00 2.22  
Year to date precipitation 8.59 5.74  
Snow  
Snow 0.00 in 0.10 in 5.30 in (1894)
Month to date snowfall 10.4 5.3  
Since 1 July snowfall 30.0 35.1  
Snow Depth 0.00 in    
Sea Level Pressure  
Sea Level Pressure 30.32 in    
Wind  
Wind Speed 5 mph (WNW)    
Max Wind Speed 12 mph    
Max Gust Speed 24 mph    
Visibility 10 miles    
Events      
T = Trace of Precipitation, MM = Missing Value Source: NWS Daily Summary

Daily Weather History Graph

Daily Weather History Graph

Search for Another Location

Airport or City:

Trip Planner

Search our weather history database for the weather conditions in past years. The results will help you decide how hot, cold, wet, or windy it might be!

Date:

Astronomy

Mar. 28, 2013 Rise Set
Actual Time 6:40 AM CDT 7:13 PM CDT
Civil Twilight 6:12 AM CDT 7:41 PM CDT
Nautical Twilight 5:39 AM CDT 8:14 PM CDT
Astronomical Twilight 5:05 AM CDT 8:48 PM CDT
Moon 9:07 PM CDT (3/28) 7:06 AM CDT (3/28)
Length of Visible Light 13h 28m
Length of Day
12h 32m
Full, 98% of the Moon is Illuminated
Mar 28
Full
Apr 2
Last Quarter
Apr 10
New
Apr 18
First Quarter
Apr 25
Full

Hourly Weather History & Observations

Time (CDT) Temp. Windchill Dew Point Humidity Pressure Visibility Wind Dir Wind Speed Gust Speed Precip Events Conditions
12:51 AM 30.9 °F 27.5 °F 21.9 °F 69% 30.32 in 10.0 mi West 3.5 mph - N/A   Clear
1:51 AM 30.0 °F 25.2 °F 21.9 °F 72% 30.32 in 10.0 mi West 4.6 mph - N/A   Clear
2:51 AM 30.0 °F 25.2 °F 21.9 °F 72% 30.32 in 10.0 mi West 4.6 mph - N/A   Clear
3:51 AM 28.9 °F 23.9 °F 21.0 °F 72% 30.32 in 10.0 mi West 4.6 mph - N/A   Clear
4:51 AM 28.9 °F 23.9 °F 21.0 °F 72% 30.32 in 10.0 mi West 4.6 mph - N/A   Clear
5:51 AM 30.0 °F 23.2 °F 21.0 °F 69% 30.32 in 10.0 mi West 6.9 mph - N/A   Partly Cloudy
6:51 AM 28.0 °F 21.7 °F 21.0 °F 75% 30.33 in 10.0 mi West 5.8 mph - N/A   Clear
7:51 AM 32.0 °F 27.5 °F 23.0 °F 69% 30.32 in 10.0 mi West 4.6 mph - N/A   Clear
8:51 AM 36.0 °F 31.1 °F 21.9 °F 57% 30.34 in 10.0 mi NW 5.8 mph - N/A   Clear
9:51 AM 41.0 °F 38.0 °F 21.0 °F 45% 30.35 in 10.0 mi NW 4.6 mph - N/A   Partly Cloudy
10:51 AM 44.1 °F 38.6 °F 19.0 °F 37% 30.34 in 10.0 mi West 10.4 mph - N/A   Partly Cloudy
11:51 AM 45.0 °F 40.6 °F 19.9 °F 37% 30.34 in 10.0 mi West 8.1 mph - N/A   Partly Cloudy
12:51 PM 48.0 °F - 19.0 °F 32% 30.33 in 10.0 mi Variable 5.8 mph - N/A   Partly Cloudy
1:51 PM 48.9 °F - 21.0 °F 33% 30.32 in 10.0 mi West 8.1 mph - N/A   Partly Cloudy
2:51 PM 48.9 °F - 19.0 °F 31% 30.30 in 10.0 mi Variable 3.5 mph - N/A   Scattered Clouds
3:51 PM 48.9 °F - 21.0 °F 33% 30.28 in 10.0 mi Variable 3.5 mph - N/A   Scattered Clouds
4:51 PM 48.9 °F - 19.9 °F 32% 30.27 in 10.0 mi WNW 6.9 mph - N/A   Scattered Clouds
5:51 PM 46.9 °F - 21.0 °F 36% 30.28 in 10.0 mi East 6.9 mph - N/A   Scattered Clouds
6:51 PM 44.1 °F 39.0 °F 19.9 °F 38% 30.28 in 10.0 mi ENE 9.2 mph - N/A   Scattered Clouds
7:51 PM 42.1 °F 40.2 °F 19.9 °F 41% 30.30 in 10.0 mi Variable 3.5 mph - N/A   Scattered Clouds
8:51 PM 41.0 °F 39.0 °F 21.0 °F 45% 30.31 in 10.0 mi Variable 3.5 mph - N/A   Scattered Clouds
9:51 PM 36.0 °F - 26.1 °F 67% 30.32 in 10.0 mi Calm Calm - N/A   Mostly Cloudy
10:51 PM 37.9 °F - 24.1 °F 57% 30.32 in 10.0 mi Calm Calm - N/A   Mostly Cloudy
11:51 PM 37.0 °F - 25.0 °F 62% 30.32 in 10.0 mi Calm Calm - N/A   Overcast